EW9318 Weather Reports


Display with metric or nautical units.
time (UTC)temp
F
wind
direction
speed
MPH
gust
MPH
rain 1hr
in
rain 24hr
in
rain mn
in
humidity
%
barometer
mb
20191206224016 31 0.0 6.0 0.00 0.00 0.00 65 1024.9
20191206223517 32 358 0.0 6.0 0.00 0.00 0.00 66 1024.9
20191206223016 32 0.0 1.0 0.00 0.00 0.00 65 1024.9
20191206222516 32 5 0.0 1.0 0.00 0.00 0.00 65 1024.9
20191206222016 32 0.0 0.0 0.00 0.00 0.00 65 1024.8
20191206221516 32 0.0 0.0 0.00 0.00 0.00 64 1024.8
20191206221016 33 0.0 4.0 0.00 0.00 0.00 64 1024.7
20191206220516 33 329 0.0 4.0 0.00 0.00 0.00 63 1024.6
20191206220016 33 5 0.0 10.0 0.00 0.00 0.00 63 1024.6
20191206215516 33 351 0.0 10.0 0.00 0.00 0.00 62 1024.6
20191206215016 33 340 0.0 9.0 0.00 0.00 0.00 62 1024.5
20191206214516 34 348 0.0 10.0 0.00 0.00 0.00 61 1024.4
20191206214016 34 358 1.0 12.0 0.00 0.00 0.00 61 1024.3
20191206213516 34 342 2.0 12.0 0.00 0.00 0.00 60 1024.2
20191206213016 34 337 0.0 10.0 0.00 0.00 0.00 60 1024.2
20191206212516 35 352 0.0 13.0 0.00 0.00 0.00 60 1024.1
20191206212016 35 342 2.0 13.0 0.00 0.00 0.00 59 1024.0
20191206211516 35 0.0 0.0 0.00 0.00 0.00 60 1024.0
20191206211016 35 0.0 0.0 0.00 0.00 0.00 59 1023.8
20191206210516 35 0.0 11.0 0.00 0.00 0.00 59 1023.9
20191206210016 35 349 0.0 12.0 0.00 0.00 0.00 58 1023.9
20191206205516 35 323 2.0 13.0 0.00 0.00 0.00 57 1023.8
20191206205016 35 351 2.0 13.0 0.00 0.00 0.00 57 1023.7
20191206204516 35 309 1.0 16.0 0.00 0.00 0.00 57 1023.6
20191206204016 35 348 7.0 16.0 0.00 0.00 0.00 58 1023.5
20191206203516 35 347 5.0 15.0 0.00 0.00 0.00 57 1023.3
20191206203016 36 352 0.0 15.0 0.00 0.00 0.00 58 1023.1
20191206202516 35 355 6.0 15.0 0.00 0.00 0.00 58 1023.0
20191206202016 36 353 5.0 14.0 0.00 0.00 0.00 57 1022.9
20191206201516 35 0 7.0 15.0 0.00 0.00 0.00 56 1022.7
20191206201016 36 355 7.0 15.0 0.00 0.00 0.00 55 1022.6
20191206200516 36 355 2.0 13.0 0.00 0.00 0.00 56 1022.5
20191206200016 36 315 1.0 14.0 0.00 0.00 0.00 57 1022.5
20191206195516 35 307 4.0 15.0 0.00 0.00 0.00 56 1022.6
20191206195016 36 329 2.0 16.0 0.00 0.00 0.00 55 1022.6
20191206194516 36 357 5.0 20.0 0.00 0.00 0.00 57 1022.5
20191206194016 36 355 12.0 20.0 0.00 0.00 0.00 57 1022.4
20191206193516 36 337 9.0 17.0 0.00 0.00 0.00 56 1022.4
20191206193016 36 338 4.0 15.0 0.00 0.00 0.00 55 1022.4
20191206192516 36 337 6.0 15.0 0.00 0.00 0.00 57 1022.3
20191206192016 36 347 3.0 16.0 0.00 0.00 0.00 58 1022.2
20191206191516 35 337 6.0 20.0 0.00 0.00 0.00 58 1022.2
20191206191016 36 333 6.0 20.0 0.00 0.00 0.00 59 1022.2
20191206190516 35 335 3.0 15.0 0.00 0.00 0.00 61 1022.1
20191206190016 35 356 7.0 17.0 0.00 0.00 0.00 60 1022.2
20191206185516 35 355 9.0 20.0 0.00 0.00 0.00 60 1022.2
20191206185016 36 348 13.0 20.0 0.00 0.00 0.00 60 1022.0
20191206184516 36 332 12.0 19.0 0.00 0.00 0.00 60 1022.0
20191206184016 36 354 10.0 18.0 0.00 0.00 0.00 63 1021.9
20191206183516 36 340 8.0 18.0 0.00 0.00 0.00 62 1021.8
20191206183016 37 350 9.0 18.0 0.00 0.00 0.00 63 1021.8
20191206182515 37 14 7.0 17.0 0.00 0.00 0.00 63 1021.8
20191206182016 37 354 0.0 11.0 0.00 0.00 0.00 65 1021.7
20191206181515 36 313 2.0 12.0 0.00 0.00 0.00 62 1021.7
20191206181016 36 335 3.0 18.0 0.00 0.00 0.00 64 1021.7
20191206180515 36 331 8.0 18.0 0.00 0.00 0.00 63 1021.7
20191206180016 36 4 7.0 17.0 0.00 0.00 0.00 61 1021.8
20191206175516 36 4 7.0 16.0 0.00 0.00 0.00 63 1021.7
20191206175015 36 353 5.0 16.0 0.00 0.00 0.00 62 1021.6
20191206174515 36 352 5.0 14.0 0.00 0.00 0.00 63 1021.6
20191206174015 36 353 3.0 12.0 0.00 0.00 0.00 62 1021.6
20191206173516 36 323 3.0 12.0 0.00 0.00 0.00 63 1021.5
20191206173015 36 345 3.0 15.0 0.00 0.00 0.00 64 1021.6
20191206172516 36 0 3.0 15.0 0.00 0.00 0.00 65 1021.5
20191206172016 36 6 2.0 13.0 0.00 0.00 0.00 64 1021.4
20191206171515 36 3 2.0 13.0 0.00 0.00 0.00 64 1021.4
20191206171016 36 333 2.0 15.0 0.00 0.00 0.00 63 1021.3
20191206170516 35 336 3.0 15.0 0.00 0.00 0.00 65 1021.4
20191206170015 35 350 3.0 15.0 0.00 0.00 0.00 64 1021.4
20191206165516 35 7 3.0 15.0 0.00 0.00 0.00 67 1021.3
20191206165015 35 2 4.0 17.0 0.00 0.00 0.00 66 1021.3
20191206164516 35 337 7.0 17.0 0.00 0.00 0.00 65 1021.4
20191206164015 35 349 6.0 14.0 0.00 0.00 0.00 66 1021.3
20191206163515 34 352 4.0 12.0 0.00 0.00 0.00 68 1021.3
20191206163015 34 350 2.0 14.0 0.00 0.00 0.00 69 1021.3
20191206162515 34 356 6.0 15.0 0.00 0.00 0.00 69 1021.2
20191206162016 34 4 8.0 15.0 0.00 0.00 0.00 71 1021.2
20191206161515 34 7 3.0 15.0 0.00 0.00 0.00 71 1021.2
20191206161015 34 352 3.0 17.0 0.00 0.00 0.00 71 1021.2
20191206160515 34 354 8.0 21.0 0.00 0.00 0.00 71 1021.2
20191206160015 34 358 9.0 21.0 0.00 0.00 0.00 71 1021.2
20191206155515 34 349 8.0 16.0 0.00 0.00 0.00 72 1021.1
20191206155015 34 345 6.0 14.0 0.00 0.00 0.00 71 1021.0
20191206154516 34 333 5.0 17.0 0.00 0.00 0.00 71 1020.9
20191206154015 34 342 7.0 17.0 0.00 0.00 0.00 71 1020.9
20191206153515 34 346 5.0 17.0 0.00 0.00 0.00 72 1020.8
20191206153015 34 358 11.0 20.0 0.00 0.00 0.00 71 1020.8
20191206152515 34 358 9.0 20.0 0.00 0.00 0.00 71 1020.7
20191206152015 34 355 7.0 16.0 0.00 0.00 0.00 72 1020.6
20191206151515 34 355 6.0 20.0 0.00 0.00 0.00 72 1020.4
20191206151015 34 2 12.0 20.0 0.00 0.00 0.00 72 1020.3
20191206150515 34 0 3.0 15.0 0.00 0.00 0.00 73 1020.3
20191206150015 34 354 8.0 17.0 0.00 0.00 0.00 73 1020.2
20191206145515 34 359 8.0 17.0 0.00 0.00 0.00 72 1020.1
20191206145015 34 6 12.0 20.0 0.00 0.00 0.00 72 1020.0
20191206144515 34 4 13.0 20.0 0.00 0.00 0.00 73 1019.9
20191206144015 34 0 13.0 18.0 0.00 0.00 0.00 73 1019.8
20191206143515 34 2 12.0 21.0 0.00 0.00 0.00 74 1019.6
20191206143016 34 4 14.0 23.0 0.00 0.00 0.00 74 1019.4
20191206142515 34 4 15.0 23.0 0.00 0.00 0.00 73 1019.4
20191206142015 35 2 14.0 22.0 0.00 0.00 0.00 74 1019.2
20191206141515 35 7 10.0 17.0 0.00 0.00 0.00 75 1019.0
20191206141016 35 358 8.0 17.0 0.00 0.00 0.00 76 1018.8
20191206140515 35 352 9.0 16.0 0.00 0.00 0.00 78 1018.7
20191206140015 35 346 0.0 13.0 0.00 0.00 0.00 80 1018.5
20191206135515 35 347 2.0 13.0 0.00 0.00 0.00 80 1018.4
20191206135015 35 0 0.0 11.0 0.00 0.00 0.00 81 1018.3
20191206134515 35 339 1.0 11.0 0.00 0.00 0.00 81 1018.2
20191206134015 35 342 1.0 14.0 0.00 0.00 0.00 81 1018.1
20191206133515 35 349 3.0 14.0 0.00 0.00 0.00 81 1017.9
20191206133015 35 356 3.0 16.0 0.00 0.00 0.00 80 1017.8
20191206132515 35 1 6.0 22.0 0.00 0.00 0.00 80 1017.7
20191206132015 35 344 14.0 22.0 0.00 0.00 0.00 80 1017.6
20191206131515 35 338 8.0 21.0 0.00 0.00 0.00 80 1017.5
20191206131015 35 342 10.0 21.0 0.00 0.00 0.00 80 1017.3
20191206130515 36 337 12.0 19.0 0.00 0.00 0.00 79 1017.2
20191206130015 36 344 5.0 18.0 0.00 0.00 0.00 79 1017.1
20191206125515 36 339 8.0 18.0 0.00 0.00 0.00 79 1016.9
20191206125015 36 346 1.0 17.0 0.00 0.00 0.00 80 1016.9
20191206124515 36 0 9.0 17.0 0.00 0.00 0.00 79 1016.8
20191206124015 36 11 6.0 18.0 0.00 0.00 0.00 80 1016.6
20191206123515 37 6 6.0 18.0 0.00 0.00 0.00 80 1016.5
20191206123015 37 17 2.0 14.0 0.00 0.00 0.00 81 1016.3
20191206122517 37 355 7.0 18.0 0.00 0.00 0.00 82 1016.2
20191206122017 37 353 9.0 18.0 0.00 0.00 0.00 82 1016.0
20191206121517 37 352 3.0 13.0 0.00 0.00 0.00 82 1015.8
20191206121017 37 341 1.0 13.0 0.00 0.00 0.00 82 1015.7
20191206120517 37 351 4.0 13.0 0.00 0.00 0.00 82 1015.5
20191206120017 37 338 2.0 12.0 0.00 0.00 0.00 82 1015.4
20191206115517 37 314 0.0 9.0 0.00 0.00 0.00 83 1015.2
20191206115017 38 332 0.0 10.0 0.00 0.00 0.00 83 1015.1
20191206114517 38 346 0.0 13.0 0.00 0.00 0.00 83 1014.9
20191206114017 38 331 1.0 13.0 0.00 0.00 0.00 83 1014.7
20191206113517 38 337 0.0 13.0 0.00 0.00 0.00 83 1014.6
20191206113017 38 343 2.0 16.0 0.00 0.00 0.00 83 1014.4
20191206112517 38 338 6.0 16.0 0.00 0.00 0.00 83 1014.3
20191206112015 38 334 9.0 16.0 0.00 0.00 0.00 84 1014.2
20191206111517 38 346 2.0 15.0 0.00 0.00 0.00 84 1013.9
20191206111017 38 317 0.0 13.0 0.00 0.00 0.00 84 1013.9
20191206110517 38 321 2.0 14.0 0.00 0.00 0.00 84 1013.8
20191206110017 38 317 6.0 18.0 0.00 0.00 0.00 84 1013.6
20191206105517 38 328 6.0 18.0 0.00 0.00 0.00 83 1013.5
20191206105017 38 320 4.0 14.0 0.00 0.00 0.00 83 1013.3
20191206104517 39 316 5.0 14.0 0.00 0.00 0.00 83 1013.4
20191206104017 39 324 2.0 14.0 0.00 0.00 0.00 83 1013.3
20191206103517 39 331 6.0 14.0 0.00 0.00 0.00 83 1013.2
20191206103017 39 320 5.0 19.0 0.00 0.00 0.00 83 1013.1
20191206102517 39 329 8.0 22.0 0.00 0.00 0.00 83 1013.1
20191206102016 40 331 8.0 22.0 0.00 0.00 0.00 84 1013.1
20191206101516 40 326 10.0 17.0 0.00 0.00 0.00 84 1012.9
20191206101016 40 328 4.0 18.0 0.00 0.00 0.00 84 1012.8
20191206100517 40 328 12.0 22.0 0.00 0.00 0.00 84 1012.7
20191206100017 40 318 12.0 22.0 0.00 0.00 0.00 83 1012.5
20191206095517 41 308 10.0 21.0 0.00 0.00 0.00 83 1012.5
20191206095017 41 309 9.0 21.0 0.00 0.00 0.00 83 1012.3
20191206094516 41 307 3.0 16.0 0.00 0.00 0.00 84 1012.4
20191206094016 41 308 5.0 17.0 0.00 0.00 0.00 84 1012.2
20191206093516 42 304 7.0 17.0 0.00 0.00 0.00 84 1012.0
20191206093016 42 305 1.0 13.0 0.00 0.00 0.00 84 1012.0
20191206092517 42 283 0.0 14.0 0.00 0.00 0.00 84 1011.9
20191206092017 42 288 3.0 14.0 0.00 0.00 0.00 84 1011.9
20191206091517 42 283 1.0 16.0 0.00 0.00 0.00 84 1011.9
20191206091016 42 278 4.0 17.0 0.00 0.00 0.00 84 1011.9
20191206090517 42 279 4.0 17.0 0.00 0.00 0.00 85 1011.9
20191206090017 41 280 2.0 14.0 0.00 0.00 0.00 86 1011.9
20191206085516 40 278 1.0 13.0 0.00 0.00 0.00 87 1011.8
20191206085016 39 275 1.0 13.0 0.00 0.00 0.00 90 1011.8
20191206084516 36 269 0.0 7.0 0.00 0.00 0.00 90 1011.7
20191206084016 35 261 0.0 4.0 0.00 0.00 0.00 89 1011.6
20191206083517 34 0.0 0.0 0.00 0.00 0.00 87 1011.6
20191206083017 34 0.0 0.0 0.00 0.00 0.00 86 1011.5
20191206082516 34 0.0 0.0 0.00 0.00 0.00 86 1011.5
20191206082016 34 0.0 0.0 0.00 0.00 0.00 86 1011.5
20191206081516 34 0.0 0.0 0.00 0.00 0.00 85 1011.4
20191206081016 34 0.0 0.0 0.00 0.00 0.00 84 1011.5
20191206080516 35 0.0 0.0 0.00 0.00 0.00 83 1011.5
20191206080016 35 0.0 0.0 0.00 0.00 0.00 83 1011.4
20191206075516 35 0.0 0.0 0.00 0.00 0.00 82 1011.4
20191206075016 35 0.0 0.0 0.00 0.00 0.00 82 1011.4
20191206074516 36 0.0 0.0 0.00 0.00 0.00 81 1011.4
20191206074016 36 0.0 0.0 0.00 0.00 0.00 81 1011.3
20191206073516 36 0.0 0.0 0.00 0.00 0.00 80 1011.4
20191206073016 36 0.0 0.0 0.00 0.00 0.00 79 1011.4
20191206072516 37 0.0 0.0 0.00 0.00 0.00 78 1011.4
20191206072016 37 0.0 0.0 0.00 0.00 0.00 78 1011.4
20191206071517 38 0.0 0.0 0.00 0.00 0.00 77 1011.3
20191206071016 38 0.0 0.0 0.00 0.00 0.00 77 1011.4
20191206070516 39 0.0 0.0 0.00 0.00 0.00 77 1011.4
20191206070016 39 0.0 0.0 0.00 0.00 0.00 77 1011.4
20191206065516 39 0.0 0.0 0.00 0.00 0.00 77 1011.4
20191206065016 39 0.0 0.0 0.00 0.00 0.00 77 1011.5
20191206064516 40 0.0 0.0 0.00 0.00 0.00 77 1011.5
20191206064016 40 0.0 0.0 0.00 0.00 0.00 77 1011.6
20191206063516 40 0.0 2.0 0.00 0.00 0.00 77 1011.6
20191206063016 40 233 0.0 2.0 0.00 0.00 0.00 77 1011.5
20191206062516 40 182 0.0 3.0 0.00 0.00 0.00 77 1011.5
20191206062017 40 182 0.0 3.0 0.00 0.00 0.00 77 1011.5
20191206061516 40 0.0 0.0 0.00 0.00 0.00 77 1011.5
20191206061016 40 0.0 0.0 0.00 0.00 0.00 77 1011.6
20191206060516 40 0.0 1.0 0.00 0.00 0.00 77 1011.7
20191206060017 40 248 0.0 2.0 0.00 0.00 0.00 77 1011.7
20191206055516 40 188 0.0 2.0 0.00 0.00 0.00 77 1011.7
20191206055016 40 0.0 1.0 0.00 0.00 0.00 77 1011.8
20191206054516 40 204 0.0 1.0 0.00 0.00 0.00 77 1011.8
20191206054016 39 0.0 0.0 0.00 0.00 0.00 77 1011.8
20191206053516 39 0.0 0.0 0.00 0.00 0.00 78 1011.9
20191206053016 39 0.0 0.0 0.00 0.00 0.00 78 1011.9
20191206052516 39 0.0 0.0 0.00 0.00 0.00 78 1012.0
20191206052017 39 0.0 0.0 0.00 0.00 0.00 79 1012.0
20191206051516 38 0.0 0.0 0.00 0.00 0.00 78 1012.0
20191206051016 38 0.0 0.0 0.00 0.00 0.00 79 1012.0
20191206050516 38 0.0 0.0 0.00 0.00 0.00 78 1012.1
20191206050016 38 0.0 0.0 0.00 0.00 0.00 78 1012.1
20191206045516 38 0.0 3.0 0.00 0.00 0.00 78 1012.2
20191206045017 38 187 0.0 3.0 0.00 0.00 0.00 78 1012.2
20191206044517 38 0.0 0.0 0.00 0.00 0.00 78 1012.3
20191206044017 38 0.0 0.0 0.00 0.00 0.00 78 1012.3
20191206043517 38 0.0 0.0 0.00 0.00 0.00 78 1012.3
20191206043017 37 0.0 4.0 0.00 0.00 0.00 78 1012.2
20191206042517 37 191 0.0 4.0 0.00 0.00 0.00 77 1012.2
20191206042016 38 186 0.0 2.0 0.00 0.00 0.00 76 1012.2
20191206041517 38 0.0 0.0 0.00 0.00 0.00 76 1012.2
20191206041017 38 0.0 0.0 0.00 0.00 0.00 75 1012.2
20191206040516 38 0.0 0.0 0.00 0.00 0.00 75 1012.4
20191206040017 38 0.0 5.0 0.00 0.00 0.00 75 1012.4
20191206035516 38 147 0.0 5.0 0.00 0.00 0.00 75 1012.5
20191206035017 38 137 0.0 4.0 0.00 0.00 0.00 75 1012.6
20191206034516 38 0.0 0.0 0.00 0.00 0.00 75 1012.6
20191206034016 38 0.0 0.0 0.00 0.00 0.00 75 1012.6
20191206033517 39 0.0 1.0 0.00 0.00 0.00 75 1012.7
20191206033016 39 165 0.0 1.0 0.00 0.00 0.00 74 1012.7
20191206032516 39 0.0 0.0 0.00 0.00 0.00 74 1012.8
20191206032016 39 0.0 0.0 0.00 0.00 0.00 74 1012.8
20191206031516 39 0.0 0.0 0.00 0.00 0.00 74 1012.9
20191206031016 39 0.0 0.0 0.00 0.00 0.00 74 1013.0
20191206030516 39 0.0 0.0 0.00 0.00 0.00 73 1013.0
20191206030016 39 0.0 0.0 0.00 0.00 0.00 73 1013.1
20191206025517 39 0.0 2.0 0.00 0.00 0.00 73 1013.1
20191206025016 39 175 0.0 2.0 0.00 0.00 0.00 73 1013.1
20191206024516 38 0.0 0.0 0.00 0.00 0.00 72 1013.1
20191206024016 38 0.0 0.0 0.00 0.00 0.00 72 1013.1
20191206023516 38 0.0 0.0 0.00 0.00 0.00 72 1013.1
20191206023018 38 0.0 0.0 0.00 0.00 0.00 71 1013.1
20191206022516 39 0.0 0.0 0.00 0.00 0.00 71 1013.0
20191206022016 39 0.0 0.0 0.00 0.00 0.00 71 1013.2
20191206021516 39 0.0 1.0 0.00 0.00 0.00 70 1013.2
20191206021016 39 207 0.0 1.0 0.00 0.00 0.00 70 1013.4
20191206020516 39 0.0 0.0 0.00 0.00 0.00 70 1013.4
20191206020016 39 0.0 2.0 0.00 0.00 0.00 69 1013.5
20191206015516 39 181 0.0 2.0 0.00 0.00 0.00 69 1013.4
20191206015016 39 179 0.0 1.0 0.00 0.00 0.00 69 1013.3
20191206014516 39 0.0 6.0 0.00 0.00 0.00 69 1013.1
20191206014016 39 179 0.0 6.0 0.00 0.00 0.00 68 1013.2
20191206013516 38 182 0.0 6.0 0.00 0.00 0.00 68 1013.2
20191206013017 38 159 0.0 5.0 0.00 0.00 0.00 68 1013.4
20191206012516 38 173 0.0 2.0 0.00 0.00 0.00 68 1013.6
20191206012016 38 174 0.0 2.0 0.00 0.00 0.00 68 1013.8
20191206011516 38 171 0.0 4.0 0.00 0.00 0.00 68 1013.7
20191206011016 38 164 0.0 5.0 0.00 0.00 0.00 68 1013.8
20191206010516 38 160 0.0 5.0 0.00 0.00 0.00 68 1013.7
20191206010016 38 166 0.0 1.0 0.00 0.00 0.00 68 1013.8
20191206005516 38 0.0 2.0 0.00 0.00 0.00 68 1013.8
20191206005016 38 163 0.0 2.0 0.00 0.00 0.00 69 1013.9
20191206004516 38 0.0 1.0 0.00 0.00 0.00 69 1013.9
20191206004016 38 164 0.0 6.0 0.00 0.00 0.00 69 1013.9
20191206003516 38 157 0.0 6.0 0.00 0.00 0.00 69 1013.9
20191206003016 38 160 0.0 1.0 0.00 0.00 0.00 70 1014.0
20191206002516 38 0.0 1.0 0.00 0.00 0.00 70 1014.0
20191206002016 37 178 0.0 1.0 0.00 0.00 0.00 71 1014.0
20191206001516 37 0.0 0.0 0.00 0.00 0.00 72 1013.9
20191206001016 37 0.0 0.0 0.00 0.00 0.00 73 1013.9
20191206000516 37 0.0 0.0 0.00 0.00 0.00 74 1014.0
20191206000016 37 0.0 0.0 0.00 0.00 0.00 74 1014.0
20191205235516 37 0.0 0.0 0.00 0.00 0.00 75 1014.0
20191205235016 37 0.0 0.0 0.00 0.00 0.00 74 1014.1
20191205234516 37 0.0 0.0 0.00 0.00 0.00 73 1014.1
20191205234016 37 0.0 0.0 0.00 0.00 0.00 73 1014.2
20191205233516 37 0.0 0.0 0.00 0.00 0.00 72 1014.2
20191205233016 37 0.0 0.0 0.00 0.00 0.00 72 1014.2
20191205232516 37 0.0 0.0 0.00 0.00 0.00 73 1014.2
20191205232016 37 0.0 0.0 0.00 0.00 0.00 73 1014.2
20191205231517 37 0.0 0.0 0.00 0.00 0.00 72 1014.1
20191205231016 37 0.0 0.0 0.00 0.00 0.00 72 1014.2
20191205230517 37 0.0 0.0 0.00 0.00 0.00 71 1014.0
20191205230016 37 0.0 0.0 0.00 0.00 0.00 71 1014.0
20191205225516 37 0.0 0.0 0.00 0.00 0.00 70 1014.0
20191205225016 38 0.0 0.0 0.00 0.00 0.00 69 1014.1
20191205224516 38 0.0 0.0 0.00 0.00 0.00 68 1014.1